DateTimeUTC,F1_A11,F1_S11,BsB_S11,BsG_S11,BsR_S11,BbsB_S11,BbsG_S11,BbsR_S11,BaB_A11,BaG_A11,BaR_A11,Tu_S11,T_S11,Uu_S11,U_S11,P_S11,T1_A11
2021-08-17T18:00:00Z,00000200,20000000,,,,,,,0000.40,0000.25,0000.09,20.0,26.5,07.7,05.2,0678.0,31.1
2021-08-17T18:01:00Z,00000200,20000000,,,,,,,-000.42,-000.36,-000.43,20.0,26.5,07.7,05.2,0678.0,31.1
2021-08-17T18:02:00Z,00000200,20000000,,,,,,,-000.01,0000.12,0000.00,20.0,26.5,07.6,05.1,0678.0,31.1
2021-08-17T18:03:00Z,00000200,60000000,,,,,,,0000.94,0000.96,0001.16,20.0,26.5,07.4,05.0,0678.0,31.1
2021-08-17T18:04:00Z,00000200,40000000,0008.61,0006.77,0005.02,0000.67,0000.56,0000.48,0001.87,0000.95,0000.92,20.1,26.4,07.5,05.2,0678.9,31.1
2021-08-17T18:05:00Z,00000200,00000000,0008.75,0006.54,0004.97,0001.02,0000.80,0000.67,0001.91,0002.32,0001.53,20.2,26.3,07.5,05.2,0679.0,31.1
2021-08-17T18:06:00Z,00000200,00000000,0009.06,0006.62,0004.93,0001.60,0000.57,0000.61,0001.75,0001.55,0001.46,20.2,26.3,07.5,05.2,0679.0,31.1
2021-08-17T18:07:00Z,00000200,00000000,0008.18,0006.88,0005.27,0001.20,0001.02,0000.46,0001.68,0001.86,0001.15,20.2,26.3,07.6,05.2,0679.0,31.1
2021-08-17T18:08:00Z,00000200,00000000,0008.97,0006.62,0004.62,0001.47,0000.70,0000.80,0002.11,0001.78,0001.42,20.2,26.3,07.6,05.2,0678.9,31.1
2021-08-17T18:09:00Z,00000200,00000000,0008.80,0007.05,0004.99,0001.40,0000.69,0000.49,0001.75,0001.75,0001.18,20.2,26.3,07.6,05.2,0678.9,31.1
2021-08-17T18:10:00Z,00000200,00000000,0008.67,0006.94,0005.12,0000.81,0000.84,0000.66,0002.15,0001.71,0001.57,20.2,26.3,07.6,05.2,0679.0,31.1
2021-08-17T18:11:00Z,00000200,00000000,0008.47,0006.22,0004.92,0001.12,0000.82,0000.81,0001.95,0001.29,0001.51,20.2,26.3,07.5,05.2,0679.0,31.1
2021-08-17T18:12:00Z,00000200,00000000,0008.60,0006.86,0004.74,0000.90,0000.72,0000.56,0001.70,0001.90,0001.08,20.2,26.3,07.4,05.1,0679.0,31.1
2021-08-17T18:13:00Z,00000200,00000000,0007.76,0007.02,0004.91,0000.77,0000.68,0000.89,0001.65,0001.47,0001.45,20.2,26.3,07.5,05.2,0679.0,31.1
2021-08-17T18:14:00Z,00000200,00000000,0008.06,0006.55,0004.69,0000.76,0000.68,0000.51,0002.05,0001.82,0001.26,20.2,26.3,07.4,05.1,0679.0,31.1
2021-08-17T18:15:00Z,00000200,00000000,0008.91,0006.86,0004.96,0000.96,0000.39,0000.25,0001.58,0002.07,0001.71,20.2,26.3,07.3,05.1,0679.0,31.1
2021-08-17T18:16:00Z,00000200,00000000,0008.86,0006.55,0004.90,0001.16,0000.54,0000.73,0001.78,0001.80,0001.54,20.2,26.3,07.4,05.1,0679.0,31.1
2021-08-17T18:17:00Z,00000200,00000000,0009.20,0007.16,0005.07,0001.24,0001.11,0000.56,0002.52,0001.89,0001.40,20.2,26.3,07.4,05.1,0679.0,31.1
2021-08-17T18:18:00Z,00000200,00000000,0009.99,0007.11,0005.46,0001.18,0000.97,0000.84,0001.70,0001.75,0001.16,20.2,26.3,07.5,05.2,0679.0,31.1
2021-08-17T18:19:00Z,00000200,00000000,0009.99,0007.24,0005.38,0001.11,0000.84,0000.68,0002.13,0001.80,0001.56,20.2,26.3,07.4,05.1,0679.1,31.1
2021-08-17T18:20:00Z,00000200,00000000,0008.99,0007.38,0005.85,0001.27,0000.92,0000.84,0002.11,0001.87,0001.45,20.2,26.3,07.5,05.2,0679.1,31.1
2021-08-17T18:21:00Z,00000200,00000000,0009.51,0008.04,0005.72,0001.06,0000.53,0000.70,0002.03,0002.07,0001.82,20.2,26.3,07.5,05.2,0679.1,31.1
2021-08-17T18:22:00Z,00000200,00000000,0009.16,0007.87,0005.54,0001.30,0000.68,0000.41,0002.26,0001.77,0001.61,20.2,26.3,07.5,05.2,0679.1,31.0
2021-08-17T18:23:00Z,00000200,00000000,0010.17,0008.05,0005.33,0001.80,0000.93,0000.54,0002.06,0002.17,0001.24,20.2,26.3,07.5,05.2,0679.1,31.0
2021-08-17T18:24:00Z,00000200,00000000,0009.44,0007.61,0005.53,0000.93,0001.10,0000.93,0002.08,0001.96,0001.94,20.2,26.3,07.6,05.2,0679.1,31.0
2021-08-17T18:25:00Z,00000200,00000000,0009.93,0007.77,0005.81,0001.36,0000.97,0000.60,0002.33,0001.99,0001.25,20.2,26.3,07.6,05.2,0679.1,31.1
2021-08-17T18:26:00Z,00000200,00000000,0010.15,0007.68,0005.73,0001.32,0000.94,0000.68,0001.94,0001.86,0001.61,20.2,26.3,07.6,05.2,0679.1,31.1
2021-08-17T18:27:00Z,00000200,00000000,0010.19,0007.86,0005.62,0001.21,0000.91,0000.69,0002.16,0001.84,0001.59,20.2,26.3,07.7,05.3,0679.1,31.1
2021-08-17T18:28:00Z,00000200,00000000,0010.29,0008.22,0005.87,0001.05,0001.03,0000.82,0002.48,0002.12,0001.33,20.2,26.3,07.6,05.2,0679.1,31.1
2021-08-17T18:29:00Z,00000200,00000000,0010.33,0007.98,0005.53,0001.41,0000.89,0000.60,0001.95,0002.07,0001.94,20.2,26.3,07.7,05.3,0679.1,31.0
2021-08-17T18:30:00Z,00000200,00000000,0008.84,0007.55,0005.08,0000.70,0000.92,0000.55,0002.19,0002.19,0001.50,20.2,26.3,07.6,05.3,0679.1,31.1
2021-08-17T18:31:00Z,00000200,00000000,0007.76,0006.72,0004.69,0001.01,0000.64,0000.85,0001.88,0001.06,0001.15,20.1,26.3,07.7,05.3,0679.1,31.1
2021-08-17T18:32:00Z,00000200,00000000,0008.84,0008.05,0005.43,0001.07,0001.02,0000.58,0002.04,0002.35,0001.67,20.2,26.3,07.6,05.3,0679.1,31.0
2021-08-17T18:33:00Z,00000200,00000000,0008.91,0008.22,0005.72,0001.09,0000.82,0000.66,0001.87,0002.00,0001.47,20.1,26.3,07.7,05.3,0679.0,31.1
2021-08-17T18:34:00Z,00000200,00000000,0008.64,0007.18,0004.95,0001.14,0000.50,0000.99,0002.06,0001.60,0001.29,20.1,26.3,07.6,05.2,0679.1,31.0
2021-08-17T18:35:00Z,00000200,00000000,0009.15,0007.37,0004.82,0001.49,0000.84,0000.39,0001.98,0002.04,0001.65,20.1,26.3,07.6,05.3,0679.1,31.0
2021-08-17T18:36:00Z,00000200,00000000,0009.68,0007.91,0005.54,0001.53,0000.82,0000.65,0001.99,0001.65,0001.44,20.1,26.3,07.7,05.3,0679.0,31.1
2021-08-17T18:37:00Z,00000200,00000000,0009.92,0008.56,0006.13,0001.37,0000.83,0000.66,0002.39,0001.98,0001.88,20.1,26.2,07.8,05.3,0679.0,31.0
2021-08-17T18:38:00Z,00000200,00000000,0010.17,0008.33,0005.84,0001.13,0001.02,0000.66,0002.15,0002.31,0001.67,20.1,26.3,07.8,05.4,0679.0,31.0
2021-08-17T18:39:00Z,00000200,00000000,0009.95,0007.79,0006.02,0001.19,0001.15,0000.69,0002.17,0001.81,0001.54,20.1,26.2,07.7,05.3,0679.0,31.0
2021-08-17T18:40:00Z,00000200,00000000,0009.80,0007.15,0005.54,0000.93,0000.64,0000.90,0001.49,0001.72,0001.42,20.1,26.2,07.7,05.3,0678.9,31.1
2021-08-17T18:41:00Z,00000200,00000000,0009.78,0008.25,0005.78,0001.23,0000.76,0000.99,0002.26,0001.93,0001.34,20.1,26.2,07.7,05.3,0678.9,31.0
2021-08-17T18:42:00Z,00000200,00000000,0010.09,0007.90,0005.59,0000.98,0000.87,0000.40,0002.45,0002.10,0001.66,20.1,26.3,07.7,05.3,0678.9,31.1
2021-08-17T18:43:00Z,00000200,00000000,0009.43,0007.05,0005.01,0000.87,0000.57,0000.47,0001.70,0001.97,0001.26,20.1,26.3,07.7,05.3,0678.9,31.1
2021-08-17T18:44:00Z,00000200,00000000,0009.34,0007.22,0005.48,0001.27,0000.64,0000.62,0002.15,0001.79,0001.54,20.1,26.3,07.7,05.3,0678.9,31.1
2021-08-17T18:45:00Z,00000200,00000000,0009.60,0007.94,0005.61,0001.76,0000.83,0000.44,0002.35,0001.74,0001.63,20.1,26.2,07.6,05.3,0678.9,31.1
2021-08-17T18:46:00Z,00000200,00000000,0010.01,0007.71,0005.71,0001.15,0001.08,0000.85,0001.82,0002.09,0001.92,20.1,26.2,07.6,05.3,0678.9,31.1
2021-08-17T18:47:00Z,00000200,00000000,0008.35,0007.36,0005.48,0000.91,0001.10,0000.79,0002.10,0001.90,0001.31,20.1,26.2,07.7,05.3,0678.9,31.1
2021-08-17T18:48:00Z,00000200,00000000,0010.04,0007.86,0005.84,0001.07,0000.96,0000.93,0002.26,0001.89,0001.47,20.1,26.3,07.6,05.3,0678.9,31.1
2021-08-17T18:49:00Z,00000200,00000000,0010.27,0008.21,0005.97,0000.68,0000.70,0000.66,0001.72,0002.04,0001.51,20.1,26.3,07.6,05.2,0678.9,31.1
2021-08-17T18:50:00Z,00000200,00000000,0008.74,0008.38,0005.72,0001.26,0001.11,0001.04,0002.38,0001.74,0001.31,20.1,26.3,07.6,05.2,0678.9,31.1
2021-08-17T18:51:00Z,00000200,00000000,0010.26,0007.80,0005.67,0001.64,0000.60,0000.59,0002.27,0002.30,0001.84,20.1,26.3,07.6,05.2,0678.9,31.1
2021-08-17T18:52:00Z,00000200,00000000,0009.54,0007.69,0006.20,0001.45,0000.88,0000.91,0002.23,0002.02,0001.73,20.1,26.3,07.7,05.3,0678.9,31.1
2021-08-17T18:53:00Z,00000200,00000000,0010.56,0007.90,0006.00,0001.52,0001.07,0000.74,0002.40,0002.29,0001.85,20.1,26.3,07.7,05.3,0678.9,31.1
2021-08-17T18:54:00Z,00000200,00000000,0010.39,0008.29,0005.62,0001.54,0001.24,0000.61,0001.93,0001.59,0001.13,20.1,26.3,07.7,05.3,0678.9,31.1
2021-08-17T18:55:00Z,00000200,00000000,0010.03,0007.81,0005.08,0000.96,0000.78,0000.48,0002.05,0002.01,0001.73,20.1,26.3,07.7,05.3,0678.8,31.1
2021-08-17T18:56:00Z,00000200,00000000,0009.51,0007.48,0005.34,0000.88,0000.85,0000.59,0001.97,0001.78,0001.44,20.1,26.3,07.7,05.3,0678.8,31.1
2021-08-17T18:57:00Z,00000200,40000000,,,,,,,0000.37,0000.39,0000.52,20.2,26.3,07.8,05.4,0678.9,31.1
2021-08-17T18:58:00Z,00000200,60000000,,,,,,,0000.17,-000.19,-000.24,19.9,26.4,07.7,05.2,0677.9,31.1
2021-08-17T18:59:00Z,00000200,20000000,,,,,,,0000.05,0000.50,0000.01,19.8,26.5,07.8,05.2,0677.9,31.1
